Location: *
(48.9303°S, 178.2433°W)
Time: 01:26:28
(UTC+00:00)

Daily predictions for brighter satellites

Satellite Brightness Start Highest point End
(mag) Time Altitude Azimuth Time Altitude Azimuth Time Altitude Azimuth
Meteor 1-31 Rocket 3.0 06:42:10 10° SSE 06:45:45 42° E 06:49:16 10° N
Cosmos 2369 Rocket 2.2 06:43:05 10° NNW 06:48:43 84° ENE 06:54:24 10° SSE
BlueWalker 3 2.7 06:45:17 10° WSW 06:49:01 46° S 06:52:44 10° E
Cosmos 1703 Rocket 4.2 06:49:00 10° NNE 06:52:57 34° E 06:56:57 10° SSE
Cosmos 2263 4.2 06:47:24 10° NNW 06:53:00 69° ENE 06:58:42 10° SSE
CRYOSAT 2 4.4 06:52:43 10° N 06:57:39 83° E 07:02:38 10° S
Okean 2 3.3 06:55:03 10° N 06:59:04 82° E 07:03:08 10° SSE
Cosmos 1733 Rocket 4.1 06:54:52 10° SSW 06:59:08 50° W 07:03:19 10° NNW
Okean 1-7 2.9 06:57:45 10° N 07:01:57 69° E 07:06:14 10° SSE
RESURS DK-1 4.2 07:05:15 11° ENE 07:05:52 12° ENE 07:07:17 10° E
ADEOS Rocket 3.8 07:01:03 10° S 07:06:30 51° WSW 07:11:50 10° NW
Cosmos 2266 Rocket 4.2 07:03:37 10° NNE 07:09:38 52° E 07:15:36 10° SSE
Cosmos 44 3.5 07:05:21 10° SW 07:10:39 86° SE 07:16:02 10° NE
CZ-4 R/B 3.1 07:08:54 10° ESE 07:10:54 14° E 07:11:46 13° ENE
Okean 3 4.5 07:08:06 10° NNW 07:12:09 50° WSW 07:16:14 10° S
USA 306 2.9 07:11:31 10° NNW 07:15:01 38° NE 07:17:57 11° ESE
USA 238 DEB 4.0 07:08:47 10° SW 07:15:28 63° NW 07:21:35 10° NNE
USA 238 4.0 07:08:54 10° SW 07:15:35 64° NW 07:21:42 10° NNE
Cosmos 1553 Rocket 4.5 07:12:19 10° SSW 07:18:46 69° W 07:25:04 10° N
SJ-6B 3.8 07:17:07 10° SE 07:20:09 23° E 07:22:23 14° NE
SL-08 ROCKET BODY 4.4 07:14:35 10° N 07:20:23 63° E 07:26:18 10° SSE
Cosmos 405 Rocket 4.3 07:21:04 10° SSW 07:24:16 33° W 07:27:26 10° NNW
Cosmos 2227 Rocket 4.0 07:20:51 10° S 07:24:45 18° SE 07:28:38 10° E
Cosmos 2251 Rocket 3.5 07:20:00 10° SSW 07:25:27 81° ESE 07:30:49 10° NNE
SL-24 R/B 4.4 07:20:17 10° S 07:25:34 86° E 07:30:29 10° N
Cosmos 1954 Rocket 4.4 07:22:12 10° SSW 07:27:14 45° ESE 07:31:00 17° NE
ATLAS CENTAUR R/B 4.3 07:18:24 10° WSW 07:28:06 58° SSE 07:36:03 13° E
Cosmos 2297 Rocket 3.3 07:24:29 10° SSW 07:29:28 30° SE 07:33:07 16° E
Cosmos 1140 Rocket 4.3 07:24:30 10° SSW 07:29:31 51° WNW 07:34:30 10° N
USA 59 Rocket 3.4 07:23:28 10° W 07:33:10 40° SSW 07:42:35 10° SE
DELTA 2 DEB (DPAF) 4.0 07:29:36 10° NNE 07:33:47 85° WNW 07:38:02 10° SSW
Resurs 01 Rocket 2.9 07:31:22 10° SE 07:34:44 20° E 07:35:34 19° ENE
USA 186 3.7 07:37:32 10° SE 07:38:52 16° ESE 07:38:52 16° ESE
Cosmos 1908 Rocket 4.3 07:37:00 10° SSW 07:41:27 57° W 07:45:52 10° N
NOAA 6 4.1 07:36:15 10° SSE 07:41:28 83° WSW 07:46:37 10° NNW
YAOGAN 1 2.6 07:37:17 10° SSE 07:41:41 89° W 07:46:02 10° NNW
Meteor 2-20 4.4 07:36:41 10° S 07:42:52 79° E 07:48:59 10° NNE
Meteor PRIRODA 4.1 07:42:45 10° SSE 07:45:50 32° E 07:46:23 30° ENE
Cosmos 407 Rocket 4.1 07:41:54 10° SSW 07:47:01 57° WNW 07:52:09 10° N
ATLAS 3B R/B 4.4 07:43:18 10° SW 07:48:04 22° S 07:52:46 10° ESE
CZ-2C R/B 3.9 07:45:21 10° S 07:48:46 42° WSW 07:52:05 10° NW
Meteor 2-20 Rocket 4.4 07:44:10 10° S 07:50:00 65° ESE 07:54:47 16° NNE
Helios 1B rocket 2.3 07:47:28 10° SSE 07:51:26 87° WSW 07:55:19 10° NNW
NOSS 3-4 (A) 4.4 07:46:44 10° NW 07:55:29 77° SW 08:03:31 10° SE
NOSS 3-4 (C) 4.4 07:46:47 10° NW 07:55:32 77° SW 08:03:34 10° SE
SPOT 1/Viking Rocket 3.5 07:52:40 10° SSE 07:57:56 64° ENE 08:03:06 10° N
Cosmos 1420 Rocket 3.9 07:54:15 10° NNW 07:59:33 72° ENE 08:04:54 10° SSE
Okean 2 Rocket 4.2 07:56:05 10° SSE 07:59:52 26° ESE 08:00:36 24° E
Cosmos 2056 Rocket 3.6 07:55:21 10° N 08:00:34 57° ENE 08:05:46 10° SSE
Cosmos 1782 Rocket 4.0 07:57:43 10° SSW 08:02:14 66° W 08:06:18 12° N
Okean O Rocket 3.3 08:00:06 10° SE 08:02:15 18° ESE 08:02:15 18° ESE
USA 215 3.3 08:00:29 24° NE 08:04:46 85° NNW 08:11:28 10° WSW
Cosmos 1703 3.4 08:01:48 10° NNW 08:05:30 70° W 08:09:16 10° S
Cosmos 1825 2.2 08:05:45 43° E 08:05:45 43° E 08:08:45 10° SSE
Cosmos 489 Rocket 4.4 08:02:08 10° N 08:08:18 70° ENE 08:14:34 10° SSE
Cosmos 2263 Rocket 4.1 08:06:43 10° S 08:10:28 18° SE 08:13:13 13° ESE
USA 305 2.4 08:09:56 10° W 08:11:53 47° SSW 08:11:53 47° SSW
Resurs 1-3 3.8 08:11:29 10° S 08:15:53 74° WSW 08:20:15 10° NNW
ACS3 Solar Sail 2.0 08:09:49 10° SSE 08:16:04 52° E 08:20:00 23° NNE
Cosmos 1300 Rocket 4.3 08:11:46 10° SSW 08:16:08 53° W 08:19:41 15° NNW
Cosmos 1892 2.3 08:17:19 62° ENE 08:17:25 62° E 08:20:54 10° SSE
USA 276 3.6 08:16:44 10° W 08:17:52 21° WNW 08:17:52 21° WNW
Cosmos 1674 Rocket 4.5 08:21:33 32° ESE 08:21:33 32° ESE 08:25:10 10° SSE
SAR-Lupe-2 3.6 08:20:32 10° SSE 08:24:13 79° WSW 08:25:59 28° NNW
Cosmos 2151 Rocket 3.9 08:20:33 10° S 08:25:02 49° ESE 08:25:42 45° ENE
CZ-4B R/B 2.7 08:21:39 10° SSE 08:25:33 68° ENE 08:26:17 54° NNE
Cosmos 1655 Rocket 4.3 08:19:51 10° NNW 08:26:07 70° W 08:32:27 10° S
Cosmos 1244 Rocket 4.5 08:22:19 23° NNE 08:26:22 64° E 08:32:37 10° SSE
BlueWalker 3 1.8 08:23:21 10° WSW 08:27:12 72° NNW 08:27:32 66° NNE
Okean 1 Rocket 4.0 08:23:42 10° S 08:27:46 32° ESE 08:27:47 32° ESE
CZ-4B R/B 3.3 08:23:30 10° SSE 08:28:21 88° ENE 08:32:11 16° NNW
Sich 1 Rocket 4.0 08:26:06 10° S 08:30:37 47° ESE 08:31:05 46° E
SJ 16-02 2.4 08:27:55 10° S 08:31:52 31° ESE 08:32:06 30° ESE
CSL-04 Debris 4.3 08:27:58 10° SSE 08:33:25 53° E 08:34:51 42° NNE
SPOT 5 4.3 08:33:45 10° SE 08:36:22 22° ESE 08:36:22 22° ESE
CZ-4C R/B 4.3 08:37:09 28° NW 08:38:16 36° W 08:41:30 10° SSW
Feng Yun 1-1 Rocket 4.4 08:33:36 10° SSE 08:39:16 56° E 08:40:55 42° NNE
Cosmos 1378 Rocket 3.5 08:39:52 60° E 08:39:52 60° E 08:44:09 10° SSE
RESURS DK-1 2.3 08:40:19 22° NNW 08:42:53 82° WSW 08:46:59 10° SSE
Cosmos 2285 Rocket 4.0 08:38:29 10° SSW 08:45:02 79° ESE 08:47:16 44° NE
CZ-4 R/B 1.7 08:41:54 10° S 08:45:45 60° WSW 08:47:14 34° NW
NOSS 3-1 (C) 3.8 08:39:32 10° SW 08:46:26 53° SE 08:48:20 39° E
Cosmos 1980 Rocket 4.4 08:50:23 11° ESE 08:50:23 11° ESE 08:50:36 10° ESE
USA 306 3.2 08:43:52 10° W 08:46:48 45° SW 08:46:48 45° SW
Cosmos 1656 3.5 08:46:35 16° NNW 08:51:05 82° ENE 08:56:37 10° SSE
Nadezhda 2 Rocket 4.4 08:49:40 28° N 08:53:08 89° ESE 08:59:21 10° S
Cosmos 1741 Rocket 4.0 08:47:47 10° SSW 08:53:09 70° ESE 08:53:56 60° ENE
Cosmos 2219 4.2 08:48:03 10° SSW 08:53:10 33° SE 08:54:18 30° ESE
ADEOS 4.3 08:51:41 10° S 08:56:50 53° WSW 09:01:56 10° NW
Meteor 1-24 Rocket 4.4 08:52:20 10° NNW 08:57:36 51° WSW 09:03:05 10° S
Cosmos 1850 Rocket 3.9 08:52:28 10° SSW 08:57:46 79° ESE 08:58:28 66° NE
CARTOSAT-1 3.9 08:55:00 10° S 08:59:18 62° WSW 09:00:35 41° NW
BREEZE-M DEB (TANK) 4.4 08:54:11 10° W 08:59:19 86° S 09:22:48 10° E
SL-08 R/B 4.4 08:58:08 34° N 09:01:06 89° E 09:07:35 10° S
SL-24 R/B - RUBIN 2 4.0 08:58:38 10° NW 09:02:49 58° SW 09:07:04 10° SE
BREEZE-M DEB (TANK) 4.4 08:36:24 10° W 09:03:00 87° S 09:06:37 35° E
CZ-4B R/B 3.2 09:02:03 10° SSE 09:07:43 87° WSW 09:09:27 46° NNW
Okean-O 3.8 09:03:31 10° SSE 09:06:10 31° SE 09:06:10 31° SE
Cosmos 968 Rocket 3.3 09:02:59 10° SSW 09:08:20 78° ESE 09:08:41 74° ENE
MOS 1-B 4.2 09:03:06 10° SSE 09:09:00 73° ENE 09:09:56 61° NNE
Cosmos 2227 Rocket 2.1 09:04:08 10° SSW 09:09:52 71° ESE 09:10:29 65° ENE
Landsat 5 3.6 09:10:18 77° WSW 09:10:18 77° WSW 09:14:27 10° SSW
Cosmos 2360 4.1 09:10:47 68° NNE 09:11:18 73° ENE 09:17:03 10° SSE
Resurs 01 Rocket 2.4 09:07:03 10° S 09:11:26 51° WSW 09:13:02 34° NW
USA 186 3.6 09:08:34 10° S 09:11:20 31° WSW 09:11:20 31° WSW
MOS 1 Rocket 3.9 09:07:27 10° SSE 09:11:29 48° ESE 09:11:29 48° ESE
Cosmos 2098 Rocket 4.4 09:09:37 10° S 09:10:56 24° SSW 09:10:56 24° SSW
Meteor 1-21 Rocket 4.4 09:13:59 56° E 09:13:59 56° E 09:19:16 10° SSE
Cosmos 1110 Rocket 3.9 09:13:54 73° E 09:13:54 73° E 09:19:02 10° SSE
Cosmos 2297 Rocket 2.4 09:08:17 10° SW 09:13:55 61° WNW 09:14:55 52° NNW
ATLAS CENTAUR R/B 3.7 09:06:00 10° SW 09:15:47 82° NW 09:18:27 50° NE
Cosmos 1697 Rocket 3.2 09:19:11 44° ESE 09:19:11 44° ESE 09:23:23 10° SE
CZ-2C R/B 3.9 09:19:25 67° SSE 09:19:25 67° SSE 09:23:46 10° S
Cosmos 1745 Rocket 3.8 09:22:25 66° NNE 09:23:21 82° E 09:29:38 10° S
USA 59 Rocket 3.3 09:16:32 10° SW 09:26:08 37° S 09:34:35 10° ESE
Lacrosse 4 Rocket 4.0 09:28:41 10° SSE 09:29:50 11° SSE 09:30:16 11° SE
MOS 1 4.2 09:26:54 10° SSE 09:32:28 73° E 09:32:28 73° E
ERS-1 Rocket 4.0 09:28:35 10° SSE 09:31:51 35° SE 09:31:51 35° SE
CSL-04 Rocket 4.2 09:28:55 10° S 09:34:19 56° WSW 09:36:08 38° NW
IRIDIUM 104 4.5 09:30:42 10° S 09:35:59 67° W 09:36:10 67° WNW
Cosmos 1452 Rocket 3.5 09:36:31 78° SW 09:36:31 78° SW 09:41:47 10° SSE
Okean 2 Rocket 4.3 09:33:50 10° SSW 09:37:54 37° W 09:37:54 37° W
Okean O Rocket 2.3 09:35:28 10° S 09:39:34 54° SW 09:39:34 54° SW
ATLAS 3B R/B 3.3 09:34:30 10° SW 09:40:24 41° SE 09:41:43 37° ESE
USA 215 4.3 09:47:49 29° NW 09:48:22 30° NW 09:54:02 10° WSW
Cosmos 2263 Rocket 2.4 09:49:49 10° SSW 09:54:54 65° SSE 09:54:54 65° SSE
Terra 3.0 09:52:30 10° SSE 09:55:22 36° SSE 09:55:22 36° SSE
ACS3 Solar Sail 3.3 09:54:06 10° S 09:59:45 34° WSW 10:05:10 11° NW
Cosmos 1025 Rocket 4.4 10:03:59 37° SSW 10:03:59 37° SSW 10:07:00 10° S
Cosmos 1709 Rocket 4.1 10:08:29 68° W 10:08:42 69° WSW 10:14:54 10° S
SJ 16-02 3.2 10:06:12 10° SW 10:08:49 27° WSW 10:08:49 27° WSW
SPOT 5 3.9 10:11:22 10° S 10:15:30 42° SW 10:15:30 42° SW
Cosmos 371 Rocket 4.4 10:14:58 10° SSW 10:18:17 43° SSW 10:18:17 43° SSW
NOSS 3-1 (A) 3.6 10:15:15 10° SW 10:21:15 69° SW 10:21:15 69° SW
ASTEX 1 4.5 10:18:06 10° S 10:22:09 42° SW 10:22:09 42° SW
SL-12 R/B(2) 4.5 10:15:44 10° SW 10:23:45 47° WNW 10:24:13 47° NW
Spot 2 Rocket 4.4 10:22:20 10° SSE 10:25:47 44° S 10:25:47 44° S
Cosmos 2082 4.2 10:23:05 10° SSW 10:27:34 57° SW 10:27:34 57° SW
Cosmos 1980 Rocket 3.0 10:32:04 47° SSE 10:32:04 47° SSE 10:36:08 10° SSE
ATLAS 2AS CENTAUR R/B 2.8 10:35:13 67° SE 10:35:13 67° SE 10:41:23 10° SE
NOSS 3-1 (C) 4.5 10:31:07 10° SW 10:35:40 33° W 10:35:40 33° W
Cosmos 2219 4.1 10:32:03 10° SW 10:36:12 42° WSW 10:36:12 42° WSW
Cosmos 2074 Rocket 4.3 10:44:10 63° SSE 10:44:10 63° SSE 10:49:30 10° S
Cosmos 2181 Rocket 4.4 10:41:26 10° SSW 10:47:07 56° WSW 10:47:07 56° WSW
SL-16 R/B 4.1 10:51:37 21° ESE 10:51:37 21° ESE 10:53:44 10° SE
Cosmos 2227 Rocket 4.1 10:49:08 10° SW 10:52:18 20° W 10:52:18 20° W
Cosmos 2154 Rocket 4.3 10:58:37 62° SSE 10:58:37 62° SSE 11:03:53 10° S
Cosmos 1697 Rocket 4.2 11:00:50 29° WSW 11:02:05 32° SW 11:07:09 10° SSE
Ariane Rocket 4.2 10:57:47 10° S 11:01:20 40° SSW 11:01:20 40° SSW
Cosmos 1844 Rocket 3.6 11:02:28 10° SSW 11:06:39 45° S 11:06:39 45° S
Lacrosse 4 Rocket 4.1 11:05:02 10° SSW 11:06:04 17° SSW 11:06:04 17° SSW
Resurs 1-4 Rocket 4.3 11:11:04 16° ESE 11:11:44 16° SE 11:14:58 10° SSE
USA 229 DEB 3.8 11:05:14 10° SW 11:11:16 63° S 11:11:16 63° S
USA 229 3.8 11:06:24 10° SW 11:12:24 63° S 11:12:24 63° S
USA 59 Rocket 2.3 11:08:14 10° SW 11:18:27 58° SE 11:21:50 39° E
Cosmos 2360 Rocket 4.1 11:21:26 21° ESE 11:21:26 21° ESE 11:23:39 10° SE
ATLAS 3B R/B 3.5 11:25:11 10° SW 11:28:57 37° WSW 11:28:57 37° WSW
Terra 4.1 11:31:06 10° SSW 11:34:03 18° SW 11:34:03 18° SW
H-2A R/B 4.5 11:37:57 19° SSW 11:37:57 19° SSW 11:39:12 10° SSW
Cosmos 2263 Rocket 4.3 11:34:40 10° SW 11:36:34 17° WSW 11:36:34 17° WSW
IDEFIX/ARIANE 42P 4.0 11:43:35 33° SE 11:43:35 33° SE 11:47:19 10° S
CZ-2D R/B 3.8 11:48:29 27° SE 11:48:29 27° SE 11:52:35 10° S
Cosmos 2333 Rocket 3.6 11:51:33 32° ESE 11:51:33 32° ESE 11:54:48 10° SE
Cosmos 2322 Rocket 3.4 11:51:39 36° SE 11:51:39 36° SE 11:55:02 10° SE
